Kezdőlap
METAR-TAF:

METAR-TAF

Repülőterek :

Taylorville Municipal Airport

Taylorville, Illinois, Amerikai Egyesült Államok

földrajzi szélesség: 39-32-03N, földrajzi hosszúság: 089-19-40W, magasság: 190 m

Jelenlegi meteorológiai megfigyelések

A jelentés 25 perccel ezelõtt készült, 14:15 UTC
Északi szél 3 kt
Hőmérséklet 1°C
Páratartalom 93%
Légköri nyomás 1026 hPa
Látótávolság: 2.4 km
Párásság

METAR: KTAZ 041415Z AUTO 35003KT 1 1/2SM BR VV007 01/00 A3029 RMK AO2

Idő: 08:40 (14:40 UTC)


TAF: hiányzik

Meteorológiai megfigyelések és előrejelzések több, mint 4000 repülőtéren (METAR és TAF jelentéseket).

A térképen piros és sárga pontok jelzik az elérhető meteorológiai állomásokat.

Mozgassa az egeret a pont fölött, hogy megjelenjen az állomás neve.

Azután kattintson az időjárási megfigyelések és előrejelzések megtekintéséhez.

A térkép megváltoztatása: kattintson a fekete keresztel jelölt zöld gombra ráközelítéshez, a vonallal jelölt zöld gombra távolításhoz, vagy a zöld nyilakra a szomszédos térképek eléréséhez.


METAR-TAF: